Lid_Strength_Index
10 10 10 10 10 10 10 10 10 9 9 8 8 8 7 7 7 7 6 6 6 5 5 4 3 2 2 2 2 3 3 4
10 10 10 10 10 10 10 11 11 10 10 9 9 9 8 8 8 8 7 7 7 7 7 7 6 5 5 4 4 4 4 5
10 10 11 11 11 11 11 11 12 11 11 11 11 11 11 11 10 10 10 9 9 8 8 8 7 7 7 6 6 5 5 5
11 11 11 12 12 12 12 13 13 13 12 12 12 12 12 12 11 11 11 10 10 10 9 9 8 7 7 6 6 5 5 5
11 12 12 12 13 13 13 13 14 13 13 13 13 13 13 13 13 12 12 12 12 11 11 11 10 10 9 8 7 6 6 5
12 13 13 13 13 13 14 14 14 14 14 14 14 14 14 14 14 13 13 13 12 12 12 12 11 11 10 10 9 8 8 7
12 13 13 13 14 14 14 15 15 15 15 15 15 15 15 15 14 14 14 13 13 13 13 13 12 10 9 9 9 9 10 9
12 13 13 13 14 14 14 14 14 14 14 15 15 15 14 14 14 14 14 13 13 13 13 12 12 10 9 9 10 10 10 10
12 13 13 14 14 14 14 14 14 15 15 16 15 15 15 15 15 14 14 14 13 13 13 12 12 10 9 9 9 9 9 10
12 12 13 14 14 14 14 15 15 15 15 15 15 16 16 16 16 15 14 14 14 13 13 13 12 10 9 9 10 10 10 9
12 12 13 13 14 15 15 16 15 15 15 15 16 17 17 17 17 16 16 14 13 13 13 13 13 11 10 10 10 10 10 10
12 12 13 13 14 15 15 15 15 16 16 15 14 16 16 15 15 16 16 14 14 14 12 13 13 13 10 9 10 10 10 10
12 12 13 14 16 16 16 15 17 17 17 17 15 13 13 13 13 12 14 14 14 14 14 13 13 12 10 9 9 8 10 10
14 15 15 17 17 17 16 17 18 20 20 19 17 14 13 12 12 11 12 13 14 15 14 14 13 13 11 10 8 8 10 10
17 17 18 18 17 18 18 19 24 23 21 19 18 16 14 12 12 11 12 12 13 13 12 12 13 13 12 9 9 9 10 10
17 18 17 18 19 20 20 23 23 22 20 19 17 17 16 14 12 11 11 11 11 10 10 11 12 12 8 8 9 10 9 11
19 19 19 21 21 22 26 27 27 23 20 20 19 18 16 14 12 10 9 8 8 8 8 7 9 7 7 7 7 7 7 11
21 20 21 22 22 24 28 29 28 25 23 21 20 19 17 14 12 14 12 9 8 8 8 6 7 7 6 6 7 7 9 12
25 24 24 25 25 26 29 30 29 27 24 22 20 19 17 15 13 13 14 14 14 11 10 9 8 8 6 7 9 13 13 14
27 27 30 28 27 29 30 28 28 25 22 21 20 18 17 15 13 14 14 15 16 15 12 12 10 10 10 11 13 15 16 17